カタログに戻る

DELTA 1 DEB

運用中PO
NORAD 21345·DEBRIS·🇺🇸 United States

打ち上げ Jun 12, 1975 から Vandenberg Space Force Base

Loading…

次のパス (今後24時間)

TLE

最新Source: Space-Track

元期: Sep 13, 2026, 15:20 UTC

1 21345U 75052BP  26256.63947619  .00000108  00000-0  37708-3 0  9997
2 21345  99.4012 137.3010 0187295 192.9910 195.2601 13.11268940686212

AllMySatでDELTA 1 DEBをリアルタイム追跡

Download on the App Store